Weather History for CYBW - January, 2014

Change the Weather History Date:

Sunday, January 26, 2014

  Actual Average Record
Temperature  
Mean Temperature 20 °F -  
Max Temperature 34 °F 28 °F - (-1)
Min Temperature 5 °F 8 °F - (-1)
Degree Days  
Heating Degree Days 45    
Moisture  
Dew Point 11 °F    
Average Humidity 73    
Maximum Humidity 86    
Minimum Humidity 56    
Precipitation  
Precipitation 0.01 in - - ()
Sea Level Pressure  
Sea Level Pressure 30.44 in    
Wind  
Wind Speed 16 mph ()    
Max Wind Speed 32 mph    
Max Gust Speed 43 mph    
Visibility 12.2 miles    
Events Snow    
Averages and records for this station are not official NWS values.
T = Trace of Precipitation, MM = Missing Value Source: Averaged Metar Reports

Daily Weather History Graph

Daily Weather History Graph

Search for Another Location

Airport or City:

Trip Planner

Search our weather history database for the weather conditions in past years. The results will help you decide how hot, cold, wet, or windy it might be!

Date:

Astronomy

Jan. 26, 2014 Rise Set
Actual Time 8:22 AM MST 5:18 PM MST
Civil Twilight 7:46 AM MST 5:54 PM MST
Nautical Twilight 7:05 AM MST 6:35 PM MST
Astronomical Twilight 6:26 AM MST 7:14 PM MST
Moon 4:07 AM MST (1/26) 1:07 PM MST (1/26)
Length of Visible Light 10h 08m
Length of Day
8h 55m
Waning Crescent, 23% of the Moon is Illuminated
Jan 26
Waning Crescent
Jan 30
New
Feb 6
First Quarter
Feb 14
Full
Feb 22
Last Quarter

Hourly Weather History & Observations

Time (MST) Temp. Windchill Dew Point Humidity Pressure Visibility Wind Dir Wind Speed Gust Speed Precip Events Conditions
5:00 AM 34 °F - 27 °F 66% 30.23 in 15 mi Calm Calm - -   Overcast
5:00 AM 33.8 °F 19.6 °F 26.6 °F 75% 30.23 in 15.0 mi North 32.2 mph - N/A   Overcast
5:12 AM 33.8 °F 19.9 °F 26.6 °F 75% 30.24 in 15.0 mi North 31.1 mph 42.6 mph N/A   Overcast
6:00 AM 32.0 °F 17.9 °F 24.8 °F 75% 30.29 in 15.0 mi North 28.8 mph 39.1 mph N/A   Overcast
6:17 AM 30.2 °F 15.9 °F 24.8 °F 80% 30.32 in 2.0 mi North 26.5 mph 38.0 mph N/A Snow Light Snow
6:20 AM 28.4 °F 13.8 °F 23.0 °F 80% 30.33 in 1.2 mi NE 25.3 mph 36.8 mph N/A Snow Light Snow
6:33 AM 24.8 °F 10.0 °F 21.2 °F 86% 30.35 in 3.0 mi NE 21.9 mph 31.1 mph N/A Snow Light Snow
7:00 AM 23.0 °F 8.3 °F 17.6 °F 80% 30.39 in 5.0 mi NNE 19.6 mph 28.8 mph N/A Snow Light Snow
8:00 AM 17.6 °F 0.5 °F 12.2 °F 79% 30.46 in 10.0 mi NNE 21.9 mph 29.9 mph N/A Snow Light Snow
9:00 AM 15.8 °F 1.4 °F 8.6 °F 73% 30.51 in 10.0 mi NE 13.8 mph 19.6 mph N/A Snow Light Snow
10:00 AM 14.0 °F 2.9 °F 6.8 °F 73% 30.56 in 15.0 mi ENE 8.1 mph - N/A Snow Light Snow
11:00 AM 13 °F - 5 °F 58% 30.58 in 19 mi ENE 8.1 mph - - Snow Light Snow
11:00 AM 14.0 °F 2.9 °F 5.0 °F 67% 30.58 in 20.0 mi ENE 8.1 mph - N/A   Mostly Cloudy
12:00 PM 14.0 °F 5.1 °F 5.0 °F 67% 30.57 in 30.0 mi East 5.8 mph - N/A   Mostly Cloudy
1:00 PM 15.8 °F 7.2 °F 6.8 °F 68% 30.54 in 30.0 mi East 5.8 mph - N/A   Scattered Clouds
2:00 PM 17.6 °F 8.2 °F 6.8 °F 63% 30.52 in 30.0 mi SSE 6.9 mph - N/A   Partly Cloudy
3:00 PM 17.6 °F 6.4 °F 6.8 °F 63% 30.48 in 30.0 mi South 9.2 mph - N/A   Partly Cloudy
4:00 PM 15.8 °F 5.1 °F 6.8 °F 68% 30.45 in 30.0 mi South 8.1 mph - N/A   Partly Cloudy
5:00 PM 14 °F - 5 °F 56% 30.46 in 28 mi SSE 9.2 mph - -   Scattered Clouds
5:00 PM 14.0 °F 2.0 °F 5.0 °F 67% 30.46 in 30.0 mi SSE 9.2 mph - N/A   Scattered Clouds
6:00 PM 12.2 °F 2.9 °F 5.0 °F 73% 30.48 in 15.0 mi SSE 5.8 mph - N/A   Scattered Clouds
7:00 PM 8.6 °F 2.0 °F 1.4 °F 73% 30.52 in 15.0 mi SSW 3.5 mph - N/A   Scattered Clouds
8:00 PM 8.6 °F 2.0 °F 5.0 °F 85% 30.54 in 15.0 mi WSW 3.5 mph - N/A   Scattered Clouds
9:00 PM 6.8 °F - 3.2 °F 85% 30.53 in 15.0 mi West 2.3 mph - N/A   Scattered Clouds
10:00 PM 5.0 °F -5.6 °F 1.4 °F 85% 30.26 in 15.0 mi NNW 5.8 mph - N/A   Scattered Clouds